User: anonymous   Login
Location: Gloden
(48.4833°N, 15.3167°E)
Time: 16:42:26
(UTC+00:00)
Language:

CUTE-I - Orbit

View from above orbital plane
View from above orbital plane
View from above satellite
View from above satellite

Ground track
Ground track

The orbit data is extracted from the following two-line orbital elements,

1 27844U 03031E   21134.00584932  .00000053  00000-0  43583-4 0  9999
2 27844  98.6808 142.7408 0010009 171.6792 188.4554 14.22307411927126
Epoch (UTC): 14 May 2021 00:08:25
Eccentricity: 0.0010009
inclination: 98.6808°
perigee height: 810 km
apogee height: 825 km
right ascension of ascending node: 142.7408°
argument of perigee: 171.6792°
revolutions per day: 14.22307411
mean anomaly at epoch: 188.4554°
orbit number at epoch: 92712

The dashed part of the orbit path shows where the satellite is in the earth's shadow,  

DLR